Content
SEND FEEDBACK

Daily
Averages
Monthly
Summary
Indonesia

JAKARTA, INDONESIA


Home > Asia > Indonesia
Elevation: 98 feet     Latitude: 06 15S     Longitude: 106 54E

WEATHER
 
SELECT A DAY
Number of Records: 234,380;   Date Range: 9/17/97 - 11/23/14
 
SHARE

PRINT THIS DATA

[ ← Previous Day ]
WEATHER ALMANAC - FEBRUARY 13, 2013
[ Next Day → ]
[ °C ]   °F
Weather ElementAverageHighLow
Temperature81.6 °F87.8 °F (12:30 pm)75.2 °F (5:00 am)
Dewpoint74 °F77 °F (12:30 pm)71.6 °F (8:00 am)
Humidity77.7 %100 % (6:00 am)57 % (10:00 am)
Barometer29.77 in29.83 in (12:30 am)29.68 in (2:30 pm)
Wind Speed5 mph11.5 mph (4:00 pm)
Weather ElementAverage
Visibility4.7 mi
Wind DirectionSSW (216.2 °)

Weather ElementTotal
Precipitation---
Cooling Degree Days16.5 (Base 65)
Growing Degree Days31.5 (Base 50)
Averaged from 55 records on February 13, 2013
WEATHER CONDITIONS BREAKOUT
WIND DIRECTION BREAKOUT
WEATHER BY HOUR - FEBRUARY 13, 2013
[ °C ]   °F
Local TimeTemperatureDewpointHumidityBarometerVisibilityWind DirectionWind SpeedGust SpeedPrecipitationEventsConditions
12:30 AM77.0 °F73.4 °F89 %29.83 in4.3 miSSE (150°)3.5 mphPartly Cloudy
1:00 AM76.0 °F74.0 °F91 %29.82 in4.0 miCalmHaze
1:00 AM77.0 °F73.4 °F89 %29.80 inCalmPartly Cloudy
1:30 AM77.0 °F73.4 °F89 %29.80 in3.1 miSSW (200°)3.5 mphPartly Cloudy
2:00 AM77.0 °F73.4 °F89 %29.80 in3.1 miVariable3.5 mphScattered Clouds
2:30 AM77.0 °F73.4 °F89 %29.80 in5.6 miNW (310°)2.3 mphOvercast
3:00 AM77.0 °F73.4 °F89 %29.77 in3.7 miCalmOvercast
3:30 AM77.0 °F73.4 °F89 %29.77 in3.7 miSE (130°)6.9 mphOvercast
4:00 AM76.0 °F74.0 °F92 %29.78 in4.0 miCalmHaze
4:00 AM77.0 °F73.4 °F89 %29.77 in4.3 miESE (120°)3.5 mphPartly Cloudy
4:30 AM77.0 °F73.4 °F89 %29.77 in3.7 miVariable3.5 mphMostly Cloudy
5:00 AM75.2 °F73.4 °F94 %29.77 inWest (260°)5.8 mphPartly Cloudy
5:30 AM75.2 °F73.4 °F94 %29.77 in1.6 miWest (280°)5.8 mphScattered Clouds
6:00 AM75.2 °F75.2 °F100 %29.77 in1.6 miWNW (290°)2.3 mphPartly Cloudy
6:30 AM75.2 °F73.4 °F94 %29.77 in1.8 miCalmPartly Cloudy
7:00 AM78.0 °F75.0 °F88 %29.79 in3.0 miCalmHaze
7:00 AM77.0 °F73.4 °F89 %29.80 in2.5 miWest (280°)3.5 mphPartly Cloudy
7:30 AM80.6 °F73.4 °F79 %29.80 in3.1 miVariable3.5 mph
8:00 AM82.4 °F71.6 °F70 %29.80 in3.7 miWSW (240°)2.3 mphPartly Cloudy
8:30 AM84.2 °F73.4 °F70 %29.80 in4.3 miWSW (240°)5.8 mphPartly Cloudy
9:00 AM84.2 °F71.6 °F66 %29.80 in4.3 miWNW (300°)3.5 mphPartly Cloudy
9:30 AM84.2 °F71.6 °F66 %29.80 in5.0 miWest (280°)3.5 mphPartly Cloudy
10:00 AM87.0 °F74.0 °F57 %29.81 in6.0 miNW (320°)4.6 mphScattered Clouds
10:00 AM86.0 °F73.4 °F66 %29.80 in6.2 miWNW (300°)3.5 mphPartly Cloudy
10:30 AM86.0 °F73.4 °F66 %29.80 in6.2 miWNW (290°)6.9 mphPartly Cloudy
11:00 AM86.0 °F75.2 °F70 %29.77 in6.2 miNW (320°)6.9 mphPartly Cloudy
11:30 AM86.0 °F75.2 °F70 %29.77 in6.2 miNNW (330°)9.2 mphPartly Cloudy
12:00 PM86.0 °F75.2 °F70 %29.77 in6.2 miNNW (330°)4.6 mphPartly Cloudy
12:30 PM87.8 °F77.0 °F70 %29.74 in6.2 miNW (310°)8.1 mphPartly Cloudy
1:00 PM87.0 °F76.0 °F63 %29.74 in6.0 miNW (320°)9.2 mphScattered Clouds
1:00 PM87.8 °F77.0 °F70 %29.74 in6.2 miNorth (350°)8.1 mphPartly Cloudy
1:30 PM87.8 °F75.2 °F66 %29.71 in6.2 miNW (320°)10.4 mphPartly Cloudy
2:00 PM87.8 °F75.2 °F66 %29.71 in6.2 miNNW (330°)10.4 mphPartly Cloudy
2:30 PM87.8 °F75.2 °F66 %29.68 in6.2 miNNW (330°)9.2 mphPartly Cloudy
3:00 PM87.8 °F75.2 °F66 %29.68 in6.2 miNorth (350°)5.8 mphPartly Cloudy
3:30 PM87.8 °F75.2 °F66 %29.68 in6.2 miNNW (330°)6.9 mphPartly Cloudy
4:00 PM87.0 °F76.0 °F61 %29.70 in6.0 miNNW (340°)11.5 mphThunderstormThunderstorm
4:00 PM86.0 °F75.2 °F70 %29.68 in6.2 miNorth (360°)9.2 mphThunderstormPartly Cloudy
4:30 PM86.0 °F73.4 °F66 %29.71 in6.2 miNNW (330°)8.1 mphThunderstormPartly Cloudy
5:00 PM86.0 °F73.4 °F66 %29.71 in6.2 miNW (310°)5.8 mphThunderstormPartly Cloudy
5:30 PM84.2 °F73.4 °F70 %29.74 in5.6 miSSW (200°)5.8 mphScattered Clouds
6:00 PM82.4 °F73.4 °F74 %29.74 in5.6 miSW (220°)8.1 mphThunderstormThunderstorm
6:30 PM80.6 °F73.4 °F79 %29.77 in5.0 miSouth (180°)5.8 mphPartly Cloudy
7:00 PM80.0 °F75.0 °F79 %29.78 in5.0 miSSE (160°)5.8 mphThunderstormLight Thunderstorm
7:00 PM80.6 °F73.4 °F79 %29.77 in4.3 miSSW (200°)4.6 mphPartly Cloudy
7:30 PM80.6 °F73.4 °F79 %29.77 in4.3 miSouth (170°)5.8 mphPartly Cloudy
8:00 PM78.8 °F73.4 °F83 %29.80 in4.3 miSSE (160°)5.8 mphPartly Cloudy
8:30 PM78.8 °F73.4 °F83 %29.80 in4.3 miSE (130°)4.6 mphPartly Cloudy
9:00 PM78.8 °F73.4 °F83 %29.80 in2.8 miSSE (160°)3.5 mphHaze
9:30 PM80.6 °F73.4 °F79 %29.80 inSSE (150°)6.9 mphHaze
10:00 PM80.0 °F74.0 °F79 %29.83 in4.0 miESE (120°)5.8 mphHaze
10:00 PM80.6 °F73.4 °F79 %29.83 inESE (120°)5.8 mphHaze
10:30 PM80.6 °F73.4 °F79 %29.83 inVariable2.3 mphHaze
11:00 PM80.6 °F73.4 °F79 %29.80 inSSE (150°)3.5 mphHaze
11:30 PM78.8 °F73.4 °F83 %29.80 inSouth (170°)2.3 mphHaze
Hourly data recorded from WIII, located miles away from Jakarta, Indonesia







STORIES FROM OUR PARTNERS